WetterOnline ( http://www.wetteronline.de )

Wetter aktuell Gießen

Aktuelles Wetter: Gießen (195m)

6-stündlich | Neueste Meldungen
Ortszeit Temperatur Wetter
Mi, 20.06. 14:00 25.5° C fast wolkenlos
Mi, 20.06. 8:00 16.7° C bewölkt
Mi, 20.06. 2:00 14.6° C wolkenlos
Di, 19.06. 20:00 20.3° C bedeckt
Di, 19.06. 14:00 21.0° C bedeckt
Di, 19.06. 8:00 17.1° C wolkenlos
Di, 19.06. 2:00 15.6° C bewölkt
Mo, 18.06. 20:00 20.7° C bewölkt
Ortszeit Temperatur Wetter
Mi, 20.06. 15:30 27.4° C leicht bewölkt
Mi, 20.06. 15:20 27.4° C leicht bewölkt
Mi, 20.06. 15:10 26.6° C leicht bewölkt
Mi, 20.06. 15:00 26.2° C leicht bewölkt
Mi, 20.06. 14:50 26.2° C leicht bewölkt
Mi, 20.06. 14:40 25.5° C bedeckt
Mi, 20.06. 14:30 25.4° C leicht bewölkt
Mi, 20.06. 14:00 25.5° C fast wolkenlos
Mi, 20.06. 13:30 24.3° C wolkig
Mi, 20.06. 13:00 24.1° C bewölkt
Mi, 20.06. 12:30 23.3° C bewölkt
Ortszeit Relative Feuchte Sichtweite
Mi, 20.06. 14:00 56% 45 km
Mi, 20.06. 8:00 81% 13 km
Mi, 20.06. 2:00 96% 9 km
Di, 19.06. 20:00 72% 35 km
Di, 19.06. 14:00 66% 40 km
Di, 19.06. 8:00 80% 15 km
Di, 19.06. 2:00 86% 19 km
Mo, 18.06. 20:00 63% 23 km
Ortszeit Relative Feuchte Sichtweite
Mi, 20.06. 15:30 44% 15 km
Mi, 20.06. 15:20 44% -
Mi, 20.06. 15:10 51% -
Mi, 20.06. 15:00 53% 35 km
Mi, 20.06. 14:50 53% -
Mi, 20.06. 14:40 48% -
Mi, 20.06. 14:30 53% 40 km
Mi, 20.06. 14:00 56% 45 km
Mi, 20.06. 13:30 55% 40 km
Mi, 20.06. 13:00 53% 29 km
Mi, 20.06. 12:30 60% 30 km
Ortszeit Niederschlagsmenge Niederschlagsart
Mi, 20.06. 14:00 0.0 l/m2 in 6 Std. -
Mi, 20.06. 8:00 0.0 l/m2 in 12 Std. -
Mi, 20.06. 2:00 0.0 l/m2 in 6 Std. -
Di, 19.06. 20:00 0.1 l/m2 in 12 Std. Regen
Di, 19.06. 14:00 0.0 l/m2 in 6 Std. -
Di, 19.06. 8:00 0.0 l/m2 in 12 Std. -
Di, 19.06. 2:00 0.0 l/m2 in 6 Std. -
Mo, 18.06. 20:00 0.0 l/m2 in 12 Std. -
Ortszeit Niederschlagsmenge Niederschlagsart
Mi, 20.06. 15:30 0.0 l/m2 in 1 Std. -
Mi, 20.06. 15:20 keine Meldung -
Mi, 20.06. 15:10 keine Meldung -
Mi, 20.06. 15:00 0.0 l/m2 in 1 Std. -
Mi, 20.06. 14:50 keine Meldung -
Mi, 20.06. 14:40 keine Meldung -
Mi, 20.06. 14:30 0.0 l/m2 in 1 Std. -
Mi, 20.06. 14:00 0.0 l/m2 in 1 Std. -
Mi, 20.06. 13:30 0.0 l/m2 in 1 Std. -
Mi, 20.06. 13:00 0.0 l/m2 in 1 Std. -
Mi, 20.06. 12:30 0.0 l/m2 in 1 Std. -
Ortszeit Stärke Spitze Richtung
km/h Bft. km/h Grad Sektor
Mi, 20.06. 14:00 7 2 18 230° SW
Mi, 20.06. 8:00 2 1 11 70° O
Mi, 20.06. 2:00 4 1 18 10° N
Di, 19.06. 20:00 7 2 25 330° NW
Di, 19.06. 14:00 17 3 30 240° SW
Di, 19.06. 8:00 11 2 19 240° SW
Di, 19.06. 2:00 4 1 25 80° O
Mo, 18.06. 20:00 17 3 35 230° SW
Ortszeit Stärke Spitze Richtung
km/h Bft. km/h Grad Sektor
Mi, 20.06. 15:30 14 3 25 260° W
Mi, 20.06. 15:20 14 3 - 260° W
Mi, 20.06. 15:10 6 1 - 160° S
Mi, 20.06. 15:00 7 2 18 160° S
Mi, 20.06. 14:50 7 2 - 160° S
Mi, 20.06. 14:40 6 1 - 290° W
Mi, 20.06. 14:30 6 1 17 170° S
Mi, 20.06. 14:00 7 2 18 230° SW
Mi, 20.06. 13:30 9 2 19 290° W
Mi, 20.06. 13:00 6 1 15 120° SO
Mi, 20.06. 12:30 6 1 15 280° W
Ortszeit Untergrenze Bedeckung Gattung
total tief tief mittel hoch
Mi, 20.06. 14:00 1290 m 1/8 1/8 - - -
Mi, 20.06. 8:00 1230 m 7/8 - - - -
Mi, 20.06. 2:00 - 0/8 0/8 - - -
Di, 19.06. 20:00 1470 m 8/8 8/8 - - -
Di, 19.06. 14:00 1320 m 8/8 8/8 - - -
Di, 19.06. 8:00 - 0/8 0/8 - - -
Di, 19.06. 2:00 1500 m 7/8 7/8 - - -
Mo, 18.06. 20:00 1350 m 7/8 7/8 - - -
Ortszeit Bedeckungsgrad in Achtel und Wolkenuntergrenze
Mi, 20.06. 15:30 2(1470m)
Mi, 20.06. 15:20 2(1470m)
Mi, 20.06. 15:10 3(1440m)
Mi, 20.06. 15:00 4(1410m)
Mi, 20.06. 14:50 4(1410m)
Mi, 20.06. 14:40 9 9 9
Mi, 20.06. 14:30 3(1380m) 9 9
Mi, 20.06. 14:00 1(1290m)
Mi, 20.06. 13:30 5(1230m)
Mi, 20.06. 13:00 7(1230m)
Mi, 20.06. 12:30 7(1170m)
Ortszeit Luftdruck NN (hPa) Tendenz (hPa in 3 Std.)
Mi, 20.06. 14:00 1020 - 1,7
Mi, 20.06. 8:00 1023 - 0,4
Mi, 20.06. 2:00 1024 0,0
Di, 19.06. 20:00 1024 - 0,2
Di, 19.06. 14:00 1024 + 0,6
Di, 19.06. 8:00 1023 + 1,0
Di, 19.06. 2:00 1022 + 0,3
Mo, 18.06. 20:00 1021 - 0,4
Ortszeit Luftdruck NN (hPa) Tendenz (hPa in 3 Std.)
Mi, 20.06. 15:30 1019 - 2,0
Mi, 20.06. 15:20 1019 keine Meldung
Mi, 20.06. 15:10 1019 keine Meldung
Mi, 20.06. 15:00 1019 - 1,9
Mi, 20.06. 14:50 1019 keine Meldung
Mi, 20.06. 14:40 1020 keine Meldung
Mi, 20.06. 14:30 1020 - 1,9
Mi, 20.06. 14:00 1020 - 1,7
Mi, 20.06. 13:30 1021 - 1,2
Mi, 20.06. 13:00 1021 - 0,9
Mi, 20.06. 12:30 1021 - 0,8
Ortszeit Schneehöhe (cm)
Mi, 20.06. 14:00 -
Mi, 20.06. 8:00 -
Mi, 20.06. 2:00 -
Di, 19.06. 20:00 -
Di, 19.06. 14:00 -
Di, 19.06. 8:00 -
Di, 19.06. 2:00 -
Mo, 18.06. 20:00 -
Ortszeit Schneehöhe (cm)
Mi, 20.06. 15:30 -
Mi, 20.06. 15:20 -
Mi, 20.06. 15:10 -
Mi, 20.06. 15:00 -
Mi, 20.06. 14:50 -
Mi, 20.06. 14:40 -
Mi, 20.06. 14:30 -
Mi, 20.06. 14:00 -
Mi, 20.06. 13:30 -
Mi, 20.06. 13:00 -
Mi, 20.06. 12:30 -
Link zu dieser Seite / Seite empfehlen

Das Wetter in ...